Location: Ariel
(45.9570°N, 122.5700°W)
Time: 07:19:50
(UTC-08:00)

Transit 4A - Pass Details

Date: 06 November 2020
Orbit: 862 x 982 km, 66.8° (Epoch: 03 December)

Event Time Altitude Azimuth Distance (km) Brightness Sun altitude
Rises 20:58:17 0° 328° (NNW) 3,696 11.6 -43.1°
Reaches altitude 10° 21:01:00 10° 334° (NNW) 2,742 10.8 -43.5°
Enters shadow 21:02:09 16° 339° (NNW) 2,349 10.3 -43.7°
